| time (UTC) | temp F | wind direction | speed knots | gust knots | rain 1hr in | rain 24hr in | rain mn in | humidity % | barometer mb |
| 20260901135557 | 47 | 64 | 4.3 | 5.2 | 0.00 | 0.00 | 0.00 | 57 | 1020.9 |
| 20260901135057 | 44 | 75 | 1.7 | 3.5 | 0.00 | 0.00 | 0.00 | 64 | 1020.9 |
| 20260901134601 | 44 | 0 | 0.0 | 1.7 | 0.00 | 0.00 | 0.00 | 68 | 1020.8 |
| 20260901134057 | 45 | 0 | 0.0 | 0.9 | 0.00 | 0.00 | 0.00 | 65 | 1020.7 |
| 20260901133557 | 46 | 0 | 0.0 | 0.0 | 0.00 | 0.00 | 0.00 | 65 | 1020.7 |
| 20260901133113 | 46 | 0 | 0.0 | 0.9 | 0.00 | 0.00 | 0.00 | 64 | 1020.6 |
| 20260901132559 | 46 | 0 | 0.0 | 1.7 | 0.00 | 0.00 | 0.00 | 63 | 1020.6 |
| 20260901132101 | 47 | 0 | 0.0 | 1.7 | 0.00 | 0.00 | 0.00 | 61 | 1020.6 |
| 20260901131603 | 47 | 143 | 0.0 | 1.7 | 0.00 | 0.00 | 0.00 | 60 | 1020.5 |
| 20260901131101 | 47 | 0 | 0.0 | 1.7 | 0.00 | 0.00 | 0.00 | 60 | 1020.6 |
| 20260901130557 | 48 | 0 | 0.0 | 1.7 | 0.00 | 0.00 | 0.00 | 59 | 1020.5 |
| 20260901130106 | 47 | 0 | 0.0 | 1.7 | 0.00 | 0.00 | 0.00 | 60 | 1020.4 |
| 20260901125557 | 47 | 152 | 0.0 | 1.7 | 0.00 | 0.00 | 0.00 | 61 | 1020.6 |
| 20260901125057 | 47 | 0 | 0.0 | 0.0 | 0.00 | 0.00 | 0.00 | 63 | 1020.5 |
| 20260901124613 | 47 | 167 | 0.0 | 0.9 | 0.00 | 0.00 | 0.00 | 64 | 1020.4 |
| 20260901124056 | 47 | 0 | 0.0 | 0.9 | 0.00 | 0.00 | 0.00 | 66 | 1020.5 |
| 20260901123601 | 47 | 0 | 0.0 | 3.5 | 0.00 | 0.00 | 0.00 | 69 | 1020.3 |
| 20260901123120 | 47 | 0 | 0.0 | 3.5 | 0.00 | 0.00 | 0.00 | 69 | 1020.4 |
| 20260901122557 | 46 | 76 | 0.0 | 1.7 | 0.00 | 0.00 | 0.00 | 71 | 1020.4 |
| 20260901122057 | 46 | 0 | 0.0 | 1.7 | 0.00 | 0.00 | 0.00 | 73 | 1020.3 |
| 20260901121608 | 45 | 0 | 0.0 | 1.7 | 0.00 | 0.00 | 0.00 | 74 | 1020.2 |
| 20260901121100 | 45 | 0 | 0.0 | 0.9 | 0.00 | 0.00 | 0.00 | 74 | 1020.2 |
| 20260901120601 | 45 | 191 | 0.0 | 0.9 | 0.00 | 0.00 | 0.00 | 74 | 1020.3 |
| 20260901120118 | 46 | 0 | 0.0 | 0.0 | 0.00 | 0.00 | 0.00 | 73 | 1020.4 |
| 20260901115559 | 47 | 0 | 0.0 | 0.9 | 0.00 | 0.00 | 0.00 | 72 | 1020.4 |
| 20260901115058 | 47 | 0 | 0.0 | 0.9 | 0.00 | 0.00 | 0.00 | 73 | 1020.4 |
| 20260901114603 | 47 | 0 | 0.0 | 1.7 | 0.00 | 0.00 | 0.00 | 73 | 1020.5 |
| 20260901114059 | 46 | 0 | 0.0 | 1.7 | 0.00 | 0.00 | 0.00 | 74 | 1020.4 |
| 20260901113559 | 47 | 0 | 0.0 | 1.7 | 0.00 | 0.00 | 0.00 | 72 | 1020.5 |
| 20260901113118 | 47 | 0 | 0.0 | 0.9 | 0.00 | 0.00 | 0.00 | 72 | 1020.4 |
| 20260901112600 | 47 | 0 | 0.0 | 1.7 | 0.00 | 0.00 | 0.00 | 72 | 1020.4 |
| 20260901112059 | 47 | 181 | 0.0 | 1.7 | 0.00 | 0.00 | 0.00 | 72 | 1020.4 |
| 20260901111605 | 47 | 0 | 0.0 | 0.9 | 0.00 | 0.00 | 0.00 | 72 | 1020.4 |
| 20260901111059 | 47 | 0 | 0.0 | 1.7 | 0.00 | 0.00 | 0.00 | 74 | 1020.4 |
| 20260901110558 | 47 | 0 | 0.0 | 1.7 | 0.00 | 0.00 | 0.00 | 74 | 1020.5 |
| 20260901110108 | 47 | 0 | 0.0 | 1.7 | 0.00 | 0.00 | 0.00 | 74 | 1020.4 |
| 20260901105559 | 47 | 171 | 0.0 | 0.9 | 0.00 | 0.00 | 0.00 | 74 | 1020.5 |
| 20260901105058 | 47 | 0 | 0.0 | 1.7 | 0.00 | 0.00 | 0.00 | 76 | 1020.4 |
| 20260901104603 | 47 | 0 | 0.0 | 1.7 | 0.00 | 0.00 | 0.00 | 76 | 1020.2 |
| 20260901104059 | 47 | 224 | 0.0 | 0.9 | 0.00 | 0.00 | 0.00 | 75 | 1020.2 |
| 20260901103559 | 48 | 0 | 0.0 | 0.9 | 0.00 | 0.00 | 0.00 | 74 | 1020.2 |
| 20260901103112 | 48 | 0 | 0.0 | 0.0 | 0.00 | 0.00 | 0.00 | 74 | 1020.2 |
| 20260901102600 | 48 | 0 | 0.0 | 0.9 | 0.00 | 0.00 | 0.00 | 74 | 1020.2 |
| 20260901102059 | 48 | 0 | 0.0 | 0.9 | 0.00 | 0.00 | 0.00 | 75 | 1020.2 |
| 20260901101605 | 48 | 173 | 0.0 | 0.9 | 0.00 | 0.00 | 0.00 | 74 | 1020.2 |
| 20260901101059 | 49 | 225 | 0.0 | 1.7 | 0.00 | 0.00 | 0.00 | 74 | 1020.4 |
| 20260901100559 | 48 | 0 | 0.0 | 1.7 | 0.00 | 0.00 | 0.00 | 75 | 1020.3 |
| 20260901100106 | 48 | 0 | 0.0 | 0.0 | 0.00 | 0.00 | 0.00 | 73 | 1020.3 |
| 20260901095558 | 49 | 0 | 0.0 | 0.0 | 0.00 | 0.00 | 0.00 | 72 | 1020.5 |
| 20260901095058 | 49 | 0 | 0.0 | 0.9 | 0.00 | 0.00 | 0.00 | 76 | 1020.4 |
| 20260901094603 | 49 | 0 | 0.0 | 0.9 | 0.00 | 0.00 | 0.00 | 73 | 1020.3 |
| 20260901094059 | 49 | 0 | 0.0 | 0.9 | 0.00 | 0.00 | 0.00 | 73 | 1020.4 |
| 20260901093558 | 49 | 0 | 0.0 | 0.9 | 0.00 | 0.00 | 0.00 | 71 | 1020.2 |
| 20260901093111 | 49 | 0 | 0.0 | 0.9 | 0.00 | 0.00 | 0.00 | 73 | 1020.2 |
| 20260901092559 | 49 | 0 | 0.0 | 0.9 | 0.00 | 0.00 | 0.00 | 71 | 1020.3 |
| 20260901092059 | 49 | 0 | 0.0 | 0.9 | 0.00 | 0.00 | 0.00 | 72 | 1020.2 |
| 20260901091611 | 49 | 0 | 0.0 | 1.7 | 0.00 | 0.00 | 0.00 | 72 | 1020.4 |
| 20260901091058 | 49 | 0 | 0.0 | 1.7 | 0.00 | 0.00 | 0.00 | 71 | 1020.3 |
| 20260901090559 | 50 | 0 | 0.0 | 0.9 | 0.00 | 0.00 | 0.00 | 72 | 1020.4 |
| 20260901085602 | 50 | 0 | 0.0 | 0.0 | 0.00 | 0.00 | 0.00 | 70 | 1020.6 |
| 20260901085059 | 50 | 0 | 0.0 | 0.0 | 0.00 | 0.00 | 0.00 | 69 | 1020.6 |
| 20260901084604 | 50 | 0 | 0.0 | 0.0 | 0.00 | 0.00 | 0.00 | 69 | 1020.4 |
| 20260901084100 | 51 | 0 | 0.0 | 0.0 | 0.00 | 0.00 | 0.00 | 69 | 1020.5 |
| 20260901083559 | 51 | 0 | 0.0 | 0.9 | 0.00 | 0.00 | 0.00 | 69 | 1020.6 |
| 20260901083107 | 50 | 0 | 0.0 | 0.9 | 0.00 | 0.00 | 0.00 | 68 | 1020.6 |
| 20260901082559 | 50 | 0 | 0.0 | 1.7 | 0.00 | 0.00 | 0.00 | 69 | 1020.7 |
| 20260901082059 | 50 | 0 | 0.0 | 1.7 | 0.00 | 0.00 | 0.00 | 69 | 1020.8 |
| 20260901081603 | 51 | 0 | 0.0 | 0.9 | 0.00 | 0.00 | 0.00 | 69 | 1021.0 |
| 20260901081058 | 51 | 0 | 0.0 | 0.0 | 0.00 | 0.00 | 0.00 | 70 | 1021.0 |
| 20260901080559 | 51 | 0 | 0.0 | 0.0 | 0.00 | 0.00 | 0.00 | 70 | 1020.9 |
| 20260901080109 | 51 | 0 | 0.0 | 0.0 | 0.00 | 0.00 | 0.00 | 70 | 1020.9 |
| 20260901075559 | 52 | 0 | 0.0 | 0.0 | 0.00 | 0.00 | 0.00 | 68 | 1020.9 |
| 20260901075059 | 51 | 0 | 0.0 | 0.9 | 0.00 | 0.00 | 0.00 | 67 | 1020.9 |
| 20260901074605 | 51 | 0 | 0.0 | 0.9 | 0.00 | 0.00 | 0.00 | 65 | 1021.0 |
| 20260901074059 | 51 | 0 | 0.0 | 0.9 | 0.00 | 0.00 | 0.00 | 65 | 1020.9 |
| 20260901073559 | 51 | 0 | 0.0 | 0.0 | 0.00 | 0.00 | 0.00 | 64 | 1021.1 |
| 20260901073105 | 52 | 0 | 0.0 | 0.9 | 0.00 | 0.00 | 0.00 | 64 | 1020.9 |
| 20260901072559 | 52 | 0 | 0.0 | 0.9 | 0.00 | 0.00 | 0.00 | 63 | 1020.9 |
| 20260901072102 | 52 | 0 | 0.0 | 0.9 | 0.00 | 0.00 | 0.00 | 63 | 1021.0 |
| 20260901071605 | 52 | 0 | 0.0 | 0.9 | 0.00 | 0.00 | 0.00 | 63 | 1020.9 |
| 20260901071058 | 52 | 0 | 0.0 | 1.7 | 0.00 | 0.00 | 0.00 | 64 | 1021.1 |
| 20260901070558 | 53 | 0 | 0.0 | 1.7 | 0.00 | 0.00 | 0.00 | 63 | 1021.1 |
| 20260901070106 | 52 | 126 | 0.0 | 1.7 | 0.00 | 0.00 | 0.00 | 63 | 1021.1 |
| 20260901065604 | 52 | 0 | 0.0 | 1.7 | 0.00 | 0.00 | 0.00 | 62 | 1021.1 |
| 20260901065100 | 53 | 0 | 0.0 | 0.9 | 0.00 | 0.00 | 0.00 | 61 | 1021.3 |
| 20260901064605 | 53 | 0 | 0.0 | 0.9 | 0.00 | 0.00 | 0.00 | 61 | 1021.3 |
| 20260901064058 | 53 | 0 | 0.0 | 0.0 | 0.00 | 0.00 | 0.00 | 61 | 1021.3 |
| 20260901063559 | 53 | 0 | 0.0 | 0.0 | 0.00 | 0.00 | 0.00 | 61 | 1021.3 |
| 20260901063116 | 53 | 0 | 0.0 | 0.9 | 0.00 | 0.00 | 0.00 | 60 | 1021.3 |
| 20260901062559 | 54 | 0 | 0.0 | 0.9 | 0.00 | 0.00 | 0.00 | 59 | 1021.2 |
| 20260901062059 | 54 | 0 | 0.0 | 0.9 | 0.00 | 0.00 | 0.00 | 60 | 1021.3 |
| 20260901061621 | 55 | 0 | 0.0 | 0.9 | 0.00 | 0.00 | 0.00 | 58 | 1021.3 |
| 20260901061059 | 55 | 0 | 0.0 | 4.3 | 0.00 | 0.00 | 0.00 | 58 | 1021.4 |
| 20260901060559 | 55 | 0 | 0.0 | 4.3 | 0.00 | 0.00 | 0.00 | 56 | 1021.4 |
| 20260901060106 | 55 | 54 | 1.7 | 4.3 | 0.00 | 0.00 | 0.00 | 56 | 1021.4 |
| 20260901055558 | 56 | 68 | 1.7 | 3.5 | 0.00 | 0.00 | 0.00 | 56 | 1021.5 |
| 20260901055058 | 56 | 65 | 1.7 | 3.5 | 0.00 | 0.00 | 0.00 | 56 | 1021.5 |
| 20260901054605 | 56 | 65 | 2.6 | 3.5 | 0.00 | 0.00 | 0.00 | 56 | 1021.5 |
| 20260901054059 | 55 | 66 | 0.0 | 2.6 | 0.00 | 0.00 | 0.00 | 57 | 1021.5 |
| 20260901053559 | 55 | 106 | 0.0 | 0.0 | 0.00 | 0.00 | 0.00 | 60 | 1021.5 |
| 20260901053107 | 55 | 0 | 0.0 | 0.9 | 0.00 | 0.00 | 0.00 | 60 | 1021.5 |
| 20260901052558 | 55 | 0 | 0.0 | 1.7 | 0.00 | 0.00 | 0.00 | 60 | 1021.6 |
| 20260901052058 | 55 | 0 | 0.0 | 1.7 | 0.00 | 0.00 | 0.00 | 59 | 1021.5 |
| 20260901051618 | 56 | 221 | 0.0 | 0.9 | 0.00 | 0.00 | 0.00 | 58 | 1021.6 |
| 20260901051059 | 56 | 0 | 0.0 | 1.7 | 0.00 | 0.00 | 0.00 | 58 | 1021.6 |
| 20260901050600 | 56 | 0 | 0.0 | 1.7 | 0.00 | 0.00 | 0.00 | 56 | 1021.6 |
| 20260901050109 | 57 | 170 | 0.0 | 1.7 | 0.00 | 0.00 | 0.00 | 56 | 1021.6 |
| 20260901045558 | 57 | 0 | 0.0 | 3.5 | 0.00 | 0.00 | 0.00 | 57 | 1021.5 |
| 20260901045058 | 57 | 0 | 0.0 | 3.5 | 0.00 | 0.00 | 0.00 | 55 | 1021.5 |
| 20260901044605 | 58 | 176 | 0.9 | 2.6 | 0.00 | 0.00 | 0.00 | 54 | 1021.5 |
| 20260901044101 | 58 | 186 | 0.0 | 3.5 | 0.00 | 0.00 | 0.00 | 54 | 1021.5 |
| 20260901043559 | 59 | 0 | 0.9 | 3.5 | 0.00 | 0.00 | 0.00 | 54 | 1021.3 |
| 20260901043108 | 59 | 48 | 0.9 | 3.5 | 0.00 | 0.00 | 0.00 | 53 | 1021.5 |
| 20260901042558 | 59 | 0 | 0.0 | 2.6 | 0.00 | 0.00 | 0.00 | 53 | 1021.4 |
| 20260901042058 | 59 | 0 | 0.0 | 2.6 | 0.00 | 0.00 | 0.00 | 53 | 1021.3 |
| 20260901041603 | 59 | 73 | 0.0 | 2.6 | 0.00 | 0.00 | 0.00 | 53 | 1021.4 |
| 20260901041102 | 60 | 106 | 0.0 | 6.1 | 0.00 | 0.00 | 0.00 | 52 | 1021.4 |
| 20260901040558 | 60 | 0 | 1.7 | 6.1 | 0.00 | 0.00 | 0.00 | 52 | 1021.4 |
| 20260901040106 | 60 | 62 | 1.7 | 6.1 | 0.00 | 0.00 | 0.00 | 53 | 1021.5 |
| 20260901035559 | 60 | 0 | 0.0 | 6.1 | 0.00 | 0.00 | 0.00 | 52 | 1021.4 |
| 20260901035059 | 60 | 152 | 2.6 | 6.1 | 0.00 | 0.00 | 0.00 | 52 | 1021.4 |
| 20260901034610 | 60 | 184 | 2.6 | 6.1 | 0.00 | 0.00 | 0.00 | 51 | 1021.2 |
| 20260901034058 | 61 | 183 | 0.9 | 4.3 | 0.00 | 0.00 | 0.00 | 51 | 1021.1 |
| 20260901033601 | 61 | 146 | 2.6 | 4.3 | 0.00 | 0.00 | 0.00 | 50 | 1021.1 |
| 20260901033115 | 61 | 116 | 0.0 | 3.5 | 0.00 | 0.00 | 0.00 | 50 | 1021.1 |
| 20260901032559 | 61 | 145 | 1.7 | 4.3 | 0.00 | 0.00 | 0.00 | 50 | 1021.0 |
| 20260901032059 | 62 | 66 | 1.7 | 4.3 | 0.00 | 0.00 | 0.00 | 50 | 1020.9 |
| 20260901031606 | 62 | 131 | 1.7 | 4.3 | 0.00 | 0.00 | 0.00 | 50 | 1020.9 |
| 20260901031058 | 62 | 149 | 0.0 | 5.2 | 0.00 | 0.00 | 0.00 | 51 | 1020.8 |
| 20260901030558 | 62 | 129 | 2.6 | 5.2 | 0.00 | 0.00 | 0.00 | 51 | 1020.7 |
| 20260901030105 | 63 | 74 | 0.0 | 3.5 | 0.00 | 0.00 | 0.00 | 52 | 1020.7 |
| 20260901025558 | 63 | 0 | 0.9 | 2.6 | 0.00 | 0.00 | 0.00 | 51 | 1020.7 |
| 20260901025059 | 63 | 0 | 0.9 | 4.3 | 0.00 | 0.00 | 0.00 | 51 | 1020.6 |
| 20260901024615 | 63 | 193 | 0.0 | 8.7 | 0.00 | 0.00 | 0.00 | 52 | 1020.4 |
| 20260901024100 | 64 | 62 | 3.5 | 8.7 | 0.00 | 0.00 | 0.00 | 51 | 1020.4 |
| 20260901023558 | 64 | 54 | 2.6 | 8.7 | 0.00 | 0.00 | 0.00 | 50 | 1020.4 |
| 20260901023106 | 64 | 53 | 0.0 | 3.5 | 0.00 | 0.00 | 0.00 | 50 | 1020.3 |
| 20260901022558 | 64 | 0 | 0.0 | 6.1 | 0.00 | 0.00 | 0.00 | 49 | 1020.2 |
| 20260901022100 | 65 | 159 | 1.7 | 7.8 | 0.00 | 0.00 | 0.00 | 47 | 1020.1 |
| 20260901021606 | 65 | 21 | 1.7 | 8.7 | 0.00 | 0.00 | 0.00 | 48 | 1020.1 |
| 20260901021058 | 66 | 56 | 3.5 | 10.4 | 0.00 | 0.00 | 0.00 | 48 | 1020.1 |
| 20260901020601 | 66 | 37 | 1.7 | 10.4 | 0.00 | 0.00 | 0.00 | 46 | 1020.1 |
| 20260901015559 | 67 | 11 | 2.6 | 7.0 | 0.00 | 0.00 | 0.00 | 46 | 1019.9 |
| 20260901015057 | 68 | 72 | 1.7 | 6.1 | 0.00 | 0.00 | 0.00 | 46 | 1019.8 |
| 20260901014610 | 68 | 51 | 0.9 | 8.7 | 0.00 | 0.00 | 0.00 | 47 | 1019.7 |
| 20260901014059 | 69 | 326 | 2.6 | 10.4 | 0.00 | 0.00 | 0.00 | 45 | 1019.6 |
| 20260901013559 | 69 | 53 | 3.5 | 13.9 | 0.00 | 0.00 | 0.00 | 43 | 1019.5 |
| 20260901013101 | 71 | 356 | 4.3 | 13.9 | 0.00 | 0.00 | 0.00 | 41 | 1019.5 |
| 20260901012558 | 72 | 323 | 1.7 | 11.3 | 0.00 | 0.00 | 0.00 | 37 | 1019.4 |
| 20260901012058 | 73 | 15 | 1.7 | 11.3 | 0.00 | 0.00 | 0.00 | 36 | 1019.4 |
| 20260901011610 | 74 | 25 | 3.5 | 8.7 | 0.00 | 0.00 | 0.00 | 28 | 1019.5 |
| 20260901011058 | 74 | 77 | 1.7 | 10.4 | 0.00 | 0.00 | 0.00 | 28 | 1019.5 |
| 20260901010558 | 74 | 100 | 4.3 | 10.4 | 0.00 | 0.00 | 0.00 | 28 | 1019.3 |
| 20260901010115 | 74 | 20 | 3.5 | 9.6 | 0.00 | 0.00 | 0.00 | 28 | 1019.4 |
| 20260901005559 | 74 | 94 | 3.5 | 8.7 | 0.00 | 0.00 | 0.00 | 28 | 1019.3 |
| 20260901005058 | 74 | 83 | 3.5 | 10.4 | 0.00 | 0.00 | 0.00 | 29 | 1019.4 |
| 20260901004618 | 74 | 60 | 4.3 | 10.4 | 0.00 | 0.00 | 0.00 | 28 | 1019.3 |
| 20260901004058 | 74 | 103 | 0.9 | 10.4 | 0.00 | 0.00 | 0.00 | 28 | 1019.4 |
| 20260901003602 | 74 | 120 | 3.5 | 10.4 | 0.00 | 0.00 | 0.00 | 28 | 1019.5 |
| 20260901003102 | 74 | 85 | 5.2 | 9.6 | 0.00 | 0.00 | 0.00 | 28 | 1019.6 |
| 20260901002559 | 75 | 122 | 4.3 | 10.4 | 0.00 | 0.00 | 0.00 | 28 | 1019.5 |
| 20260901002059 | 74 | 153 | 5.2 | 10.4 | 0.00 | 0.00 | 0.00 | 28 | 1019.6 |
| 20260901001606 | 75 | 105 | 4.3 | 8.7 | 0.00 | 0.00 | 0.00 | 28 | 1019.6 |
| 20260901001059 | 75 | 117 | 3.5 | 8.7 | 0.00 | 0.00 | 0.00 | 28 | 1019.6 |
| 20260901000601 | 75 | 82 | 5.2 | 10.4 | 0.00 | 0.00 | 0.00 | 28 | 1019.7 |
| 20260901000110 | 75 | 102 | 4.3 | 10.4 | 0.00 | 0.00 | 0.00 | 29 | 1019.7 |
| 20260831235558 | 74 | 115 | 3.5 | 9.6 | 0.00 | 0.00 | 0.00 | 29 | 1019.7 |
| 20260831235055 | 75 | 170 | 4.3 | 11.3 | 0.00 | 0.00 | 0.00 | 28 | 1019.6 |
| 20260831234609 | 75 | 142 | 5.2 | 13.0 | 0.00 | 0.00 | 0.00 | 29 | 1019.9 |
| 20260831234057 | 75 | 84 | 7.0 | 13.0 | 0.00 | 0.00 | 0.00 | 29 | 1019.7 |
| 20260831233556 | 75 | 136 | 7.0 | 11.3 | 0.00 | 0.00 | 0.00 | 28 | 1019.7 |
| 20260831233105 | 75 | 37 | 1.7 | 9.6 | 0.00 | 0.00 | 0.00 | 29 | 1019.6 |
| 20260831232558 | 74 | 0 | 5.2 | 9.6 | 0.00 | 0.00 | 0.00 | 28 | 1019.5 |
| 20260831232056 | 75 | 24 | 4.3 | 9.6 | 0.00 | 0.00 | 0.00 | 28 | 1019.6 |
| 20260831231609 | 75 | 130 | 6.1 | 9.6 | 0.00 | 0.00 | 0.00 | 29 | 1019.7 |
| 20260831231057 | 75 | 118 | 3.5 | 12.2 | 0.00 | 0.00 | 0.00 | 29 | 1019.8 |
| 20260831230557 | 75 | 235 | 3.5 | 12.2 | 0.00 | 0.00 | 0.00 | 30 | 1019.8 |
| 20260831225556 | 75 | 119 | 4.3 | 15.6 | 0.00 | 0.00 | 0.00 | 29 | 1019.9 |
| 20260831225056 | 75 | 96 | 3.5 | 15.6 | 0.00 | 0.00 | 0.00 | 29 | 1019.9 |
| 20260831224610 | 74 | 131 | 7.0 | 15.6 | 0.00 | 0.00 | 0.00 | 30 | 1019.9 |
| 20260831224058 | 75 | 0 | 1.7 | 8.7 | 0.00 | 0.00 | 0.00 | 29 | 1020.1 |
| 20260831223558 | 75 | 155 | 3.5 | 12.2 | 0.00 | 0.00 | 0.00 | 28 | 1020.2 |
| 20260831223107 | 75 | 73 | 4.3 | 14.8 | 0.00 | 0.00 | 0.00 | 28 | 1020.3 |
| 20260831222600 | 75 | 129 | 6.1 | 14.8 | 0.00 | 0.00 | 0.00 | 28 | 1020.3 |
| 20260831222057 | 76 | 84 | 2.6 | 10.4 | 0.00 | 0.00 | 0.00 | 29 | 1020.4 |
| 20260831221610 | 75 | 0 | 2.6 | 13.0 | 0.00 | 0.00 | 0.00 | 28 | 1020.5 |
| 20260831221101 | 76 | 118 | 6.1 | 13.0 | 0.00 | 0.00 | 0.00 | 29 | 1020.5 |
| 20260831220557 | 76 | 76 | 4.3 | 11.3 | 0.00 | 0.00 | 0.00 | 29 | 1020.4 |
| 20260831220105 | 75 | 84 | 2.6 | 13.0 | 0.00 | 0.00 | 0.00 | 29 | 1020.5 |
| 20260831215557 | 75 | 107 | 3.5 | 13.0 | 0.00 | 0.00 | 0.00 | 29 | 1020.5 |
| 20260831215058 | 75 | 46 | 5.2 | 12.2 | 0.00 | 0.00 | 0.00 | 30 | 1020.4 |
| 20260831214607 | 75 | 40 | 1.7 | 9.6 | 0.00 | 0.00 | 0.00 | 29 | 1020.6 |
| 20260831214057 | 77 | 52 | 0.9 | 6.1 | 0.00 | 0.00 | 0.00 | 29 | 1020.9 |
| 20260831213556 | 76 | 0 | 0.9 | 11.3 | 0.00 | 0.00 | 0.00 | 29 | 1020.9 |
| 20260831213101 | 74 | 160 | 0.9 | 11.3 | 0.00 | 0.00 | 0.00 | 30 | 1021.1 |
| 20260831212556 | 74 | 69 | 5.2 | 11.3 | 0.00 | 0.00 | 0.00 | 30 | 1020.9 |
| 20260831212059 | 75 | 134 | 2.6 | 11.3 | 0.00 | 0.00 | 0.00 | 31 | 1021.0 |
| 20260831211606 | 74 | 123 | 4.3 | 14.8 | 0.00 | 0.00 | 0.00 | 30 | 1021.1 |
| 20260831211057 | 74 | 148 | 5.2 | 14.8 | 0.00 | 0.00 | 0.00 | 30 | 1021.0 |
| 20260831210556 | 74 | 76 | 5.2 | 14.8 | 0.00 | 0.00 | 0.00 | 30 | 1021.2 |
| 20260831210106 | 75 | 32 | 6.1 | 11.3 | 0.00 | 0.00 | 0.00 | 30 | 1021.1 |
| 20260831205559 | 74 | 97 | 5.2 | 15.6 | 0.00 | 0.00 | 0.00 | 32 | 1021.1 |
| 20260831205057 | 74 | 129 | 5.2 | 15.6 | 0.00 | 0.00 | 0.00 | 32 | 1021.2 |
| 20260831204603 | 74 | 30 | 6.1 | 16.5 | 0.00 | 0.00 | 0.00 | 32 | 1021.3 |
| 20260831204057 | 74 | 117 | 6.1 | 16.5 | 0.00 | 0.00 | 0.00 | 32 | 1021.3 |
| 20260831203557 | 73 | 140 | 7.0 | 16.5 | 0.00 | 0.00 | 0.00 | 32 | 1021.3 |
| 20260831203107 | 73 | 164 | 7.0 | 16.5 | 0.00 | 0.00 | 0.00 | 32 | 1021.3 |
| 20260831202558 | 73 | 97 | 7.0 | 16.5 | 0.00 | 0.00 | 0.00 | 33 | 1021.2 |
| 20260831202058 | 72 | 55 | 6.1 | 20.0 | 0.00 | 0.00 | 0.00 | 32 | 1021.4 |
| 20260831201603 | 73 | 136 | 7.0 | 20.0 | 0.00 | 0.00 | 0.00 | 33 | 1021.4 |
| 20260831201058 | 73 | 175 | 7.0 | 15.6 | 0.00 | 0.00 | 0.00 | 33 | 1021.4 |
| 20260831200558 | 73 | 68 | 7.8 | 13.9 | 0.00 | 0.00 | 0.00 | 33 | 1021.4 |
| 20260831200107 | 72 | 104 | 5.2 | 17.4 | 0.00 | 0.00 | 0.00 | 34 | 1021.5 |
| 20260831195558 | 72 | 51 | 9.6 | 17.4 | 0.00 | 0.00 | 0.00 | 33 | 1021.4 |
| 20260831195057 | 71 | 113 | 8.7 | 15.6 | 0.00 | 0.00 | 0.00 | 33 | 1021.6 |
| 20260831194640 | 71 | 107 | 8.7 | 16.5 | 0.00 | 0.00 | 0.00 | 33 | 1021.7 |
| 20260831194057 | 72 | 104 | 7.0 | 16.5 | 0.00 | 0.00 | 0.00 | 33 | 1021.7 |
| 20260831193558 | 72 | 69 | 7.8 | 16.5 | 0.00 | 0.00 | 0.00 | 32 | 1021.7 |
| 20260831193104 | 71 | 100 | 7.0 | 18.2 | 0.00 | 0.00 | 0.00 | 34 | 1021.8 |
| 20260831192558 | 71 | 104 | 8.7 | 18.2 | 0.00 | 0.00 | 0.00 | 33 | 1021.9 |
| 20260831192058 | 71 | 96 | 7.8 | 14.8 | 0.00 | 0.00 | 0.00 | 33 | 1021.8 |
| 20260831191608 | 71 | 68 | 8.7 | 18.2 | 0.00 | 0.00 | 0.00 | 33 | 1022.1 |
| 20260831191058 | 71 | 153 | 7.8 | 18.2 | 0.00 | 0.00 | 0.00 | 33 | 1022.0 |
| 20260831190558 | 71 | 119 | 8.7 | 15.6 | 0.00 | 0.00 | 0.00 | 32 | 1022.2 |
| 20260831190130 | 71 | 148 | 8.7 | 15.6 | 0.00 | 0.00 | 0.00 | 32 | 1022.1 |
| 20260831185558 | 71 | 175 | 6.1 | 16.5 | 0.00 | 0.00 | 0.00 | 33 | 1022.1 |
| 20260831185058 | 70 | 139 | 9.6 | 21.7 | 0.00 | 0.00 | 0.00 | 32 | 1022.3 |
| 20260831184614 | 70 | 115 | 7.0 | 21.7 | 0.00 | 0.00 | 0.00 | 33 | 1022.2 |
| 20260831184059 | 70 | 95 | 7.8 | 17.4 | 0.00 | 0.00 | 0.00 | 32 | 1022.2 |
| 20260831183559 | 71 | 117 | 5.2 | 13.9 | 0.00 | 0.00 | 0.00 | 32 | 1022.3 |
| 20260831183111 | 70 | 106 | 8.7 | 13.9 | 0.00 | 0.00 | 0.00 | 32 | 1022.3 |
| 20260831182601 | 71 | 122 | 6.1 | 12.2 | 0.00 | 0.00 | 0.00 | 32 | 1022.3 |
| 20260831182058 | 70 | 19 | 6.1 | 12.2 | 0.00 | 0.00 | 0.00 | 32 | 1022.4 |
| 20260831181606 | 70 | 119 | 5.2 | 12.2 | 0.00 | 0.00 | 0.00 | 32 | 1022.4 |
| 20260831181058 | 70 | 153 | 5.2 | 13.9 | 0.00 | 0.00 | 0.00 | 31 | 1022.4 |
| 20260831180559 | 70 | 110 | 4.3 | 14.8 | 0.00 | 0.00 | 0.00 | 32 | 1022.4 |
| 20260831180109 | 70 | 26 | 7.0 | 14.8 | 0.00 | 0.00 | 0.00 | 31 | 1022.3 |
| 20260831175600 | 72 | 60 | 4.3 | 12.2 | 0.00 | 0.00 | 0.00 | 30 | 1022.3 |
| 20260831175058 | 72 | 276 | 1.7 | 4.3 | 0.00 | 0.00 | 0.00 | 31 | 1022.4 |
| 20260831174639 | 72 | 0 | 0.9 | 3.5 | 0.00 | 0.00 | 0.00 | 29 | 1022.3 |
| 20260831174058 | 72 | 352 | 0.9 | 3.5 | 0.00 | 0.00 | 0.00 | 30 | 1022.4 |
| 20260831173558 | 71 | 349 | 0.9 | 3.5 | 0.00 | 0.00 | 0.00 | 30 | 1022.4 |
| 20260831173105 | 70 | 311 | 0.9 | 3.5 | 0.00 | 0.00 | 0.00 | 30 | 1022.4 |
| 20260831172558 | 70 | 56 | 0.9 | 3.5 | 0.00 | 0.00 | 0.00 | 32 | 1022.6 |
| 20260831172058 | 69 | 306 | 1.7 | 4.3 | 0.00 | 0.00 | 0.00 | 34 | 1022.6 |
| 20260831171604 | 69 | 74 | 0.0 | 4.3 | 0.00 | 0.00 | 0.00 | 35 | 1022.6 |
| 20260831171058 | 70 | 51 | 0.0 | 1.7 | 0.00 | 0.00 | 0.00 | 33 | 1022.5 |
| 20260831170558 | 69 | 244 | 0.0 | 2.6 | 0.00 | 0.00 | 0.00 | 34 | 1022.6 |
| 20260831170107 | 67 | 290 | 0.0 | 2.6 | 0.00 | 0.00 | 0.00 | 39 | 1022.5 |
| 20260831165559 | 66 | 44 | 0.0 | 3.5 | 0.00 | 0.00 | 0.00 | 41 | 1022.5 |
| 20260831165058 | 65 | 53 | 1.7 | 3.5 | 0.00 | 0.00 | 0.00 | 44 | 1022.6 |
| 20260831164605 | 65 | 42 | 0.9 | 2.6 | 0.00 | 0.00 | 0.00 | 42 | 1022.6 |
| 20260831164100 | 65 | 0 | 0.9 | 3.5 | 0.00 | 0.00 | 0.00 | 41 | 1022.8 |
| 20260831163558 | 64 | 52 | 1.7 | 3.5 | 0.00 | 0.00 | 0.00 | 45 | 1022.8 |
| 20260831163107 | 63 | 53 | 0.9 | 3.5 | 0.00 | 0.00 | 0.00 | 42 | 1022.8 |
| 20260831162559 | 63 | 53 | 0.9 | 3.5 | 0.00 | 0.00 | 0.00 | 42 | 1022.9 |
| 20260831162058 | 63 | 43 | 1.7 | 4.3 | 0.00 | 0.00 | 0.00 | 47 | 1022.9 |
| 20260831161608 | 62 | 34 | 1.7 | 4.3 | 0.00 | 0.00 | 0.00 | 47 | 1022.9 |
| 20260831161058 | 63 | 45 | 0.9 | 2.6 | 0.00 | 0.00 | 0.00 | 44 | 1022.9 |
| 20260831160558 | 62 | 52 | 0.0 | 2.6 | 0.00 | 0.00 | 0.00 | 47 | 1022.8 |
| 20260831160106 | 61 | 0 | 0.9 | 2.6 | 0.00 | 0.00 | 0.00 | 45 | 1022.9 |
| 20260831155601 | 60 | 47 | 0.0 | 2.6 | 0.00 | 0.00 | 0.00 | 45 | 1022.9 |
| 20260831155058 | 59 | 38 | 1.7 | 2.6 | 0.00 | 0.00 | 0.00 | 55 | 1022.9 |
| 20260831154627 | 58 | 0 | 0.0 | 1.7 | 0.00 | 0.00 | 0.00 | 58 | 1022.8 |
| 20260831154057 | 58 | 71 | 0.0 | 0.9 | 0.00 | 0.00 | 0.00 | 60 | 1022.8 |
| 20260831153601 | 57 | 0 | 0.0 | 0.9 | 0.00 | 0.00 | 0.00 | 61 | 1022.9 |
| 20260831153118 | 56 | 0 | 0.0 | 0.9 | 0.00 | 0.00 | 0.00 | 63 | 1023.0 |
| 20260831152558 | 54 | 95 | 0.0 | 0.9 | 0.00 | 0.00 | 0.00 | 66 | 1023.0 |
| 20260831152058 | 53 | 0 | 0.0 | 0.9 | 0.00 | 0.00 | 0.00 | 66 | 1022.9 |
| 20260831151613 | 53 | 86 | 0.0 | 0.9 | 0.00 | 0.00 | 0.00 | 69 | 1022.9 |
| 20260831151059 | 52 | 0 | 0.0 | 0.9 | 0.00 | 0.00 | 0.00 | 68 | 1022.9 |
| 20260831150559 | 51 | 0 | 0.0 | 0.9 | 0.00 | 0.00 | 0.00 | 71 | 1022.9 |
| 20260831150106 | 51 | 0 | 0.0 | 0.9 | 0.00 | 0.00 | 0.00 | 71 | 1022.9 |
| 20260831145559 | 51 | 0 | 0.0 | 0.0 | 0.00 | 0.00 | 0.00 | 72 | 1022.9 |
| 20260831145058 | 50 | 0 | 0.0 | 0.9 | 0.00 | 0.00 | 0.00 | 74 | 1022.9 |
| 20260831144605 | 48 | 0 | 0.0 | 0.9 | 0.00 | 0.00 | 0.00 | 76 | 1022.9 |
| 20260831144058 | 47 | 0 | 0.0 | 0.0 | 0.00 | 0.00 | 0.00 | 74 | 1023.0 |
| 20260831143558 | 46 | 0 | 0.0 | 0.9 | 0.00 | 0.00 | 0.00 | 76 | 1022.8 |
| 20260831143103 | 44 | 0 | 0.0 | 0.9 | 0.00 | 0.00 | 0.00 | 80 | 1022.8 |
| 20260831142558 | 42 | 0 | 0.0 | 0.9 | 0.00 | 0.00 | 0.00 | 82 | 1022.8 |
| 20260831142059 | 41 | 0 | 0.0 | 0.0 | 0.00 | 0.00 | 0.00 | 81 | 1022.8 |
| 20260831141606 | 42 | 0 | 0.0 | 0.0 | 0.00 | 0.00 | 0.00 | 81 | 1022.9 |
| 20260831141057 | 42 | 0 | 0.0 | 0.0 | 0.00 | 0.00 | 0.00 | 80 | 1022.9 |
| 20260831140558 | 42 | 0 | 0.0 | 0.9 | 0.00 | 0.00 | 0.00 | 80 | 1022.8 |
| 20260831140106 | 42 | 0 | 0.0 | 0.9 | 0.00 | 0.00 | 0.00 | 80 | 1022.7 |